{"data":{"norad_id":89132,"intl_designator":"","name":"UNKNOWN","alt_names":[],"object_type":"UNKNOWN","status":"UNKNOWN","operator":null,"country":null,"launch_date":null,"launch_site_code":null,"launch_vehicle":null,"mission":null,"orbit_class":"UNKNOWN","rcs_meters":null,"size_class":null,"mass_kg":null,"dimensions":null,"purposes":[],"wikipedia_slug":null,"has_3d_model":false,"image_url":null,"decayed_at":null,"tle_current":{"epoch":"2026-09-07T19:58:10.822080Z","epoch_age_seconds":1112617,"freshness":"AGED","line1":"1 89132U          26250.83206970  .00000149  00000+0  24672-3 0  9990","line2":"2 89132  63.4171  97.2038 2915512 319.7959  21.9505  8.88160149349007","mean_motion":8.88160149,"eccentricity":0.2915512,"inclination_deg":63.4171,"raan_deg":97.2038,"arg_perigee_deg":319.7959,"mean_anomaly_deg":21.9505,"bstar":0.00024672,"rev_number":34900,"period_min":162.13292181836,"perigee_km":599.62450951796,"apogee_km":6342.8052204283,"semimajor_km":9849.3518649731,"source":"CELESTRAK","updated_at":"2026-09-20T09:00:32.482424Z"}}}